#datetime,building,power
2024-02-18T00:00:00,pth,6.00
2024-02-18T00:01:00,pth,2.40
2024-02-18T00:02:00,pth,2.40
2024-02-18T00:04:00,pth,4.80
2024-02-18T00:05:00,pth,2.40
2024-02-18T00:07:00,pth,3.60
2024-02-18T00:08:00,pth,2.40
2024-02-18T00:10:00,pth,4.80
2024-02-18T00:12:00,pth,3.60
2024-02-18T00:14:00,pth,4.80
2024-02-18T00:16:00,pth,4.80
2024-02-18T00:17:00,pth,2.40
2024-02-18T00:19:00,pth,4.80
2024-02-18T00:21:00,pth,4.80
2024-02-18T00:23:00,pth,4.80
2024-02-18T00:24:00,pth,2.40
2024-02-18T00:25:00,pth,2.40
2024-02-18T00:27:00,pth,4.80
2024-02-18T00:29:00,pth,4.80
2024-02-18T00:30:00,pth,2.40
2024-02-18T00:31:00,pth,2.40
2024-02-18T00:33:00,pth,4.80
2024-02-18T00:35:00,pth,4.80
2024-02-18T00:36:00,pth,2.40
2024-02-18T00:38:00,pth,4.80
2024-02-18T00:40:00,pth,3.60
2024-02-18T00:42:00,pth,4.80
2024-02-18T00:44:00,pth,4.80
2024-02-18T00:45:00,pth,2.40
2024-02-18T00:47:00,pth,4.80
2024-02-18T00:49:00,pth,4.80
2024-02-18T00:50:00,pth,2.40
2024-02-18T00:51:00,pth,2.40
2024-02-18T00:53:00,pth,4.80
2024-02-18T00:55:00,pth,4.80
2024-02-18T00:56:00,pth,2.40
2024-02-18T00:58:00,pth,3.60
2024-02-18T00:59:00,pth,2.40
2024-02-18T01:01:00,pth,4.80
2024-02-18T01:02:00,pth,2.40
2024-02-18T01:04:00,pth,6.00
2024-02-18T01:05:00,pth,2.40
2024-02-18T01:07:00,pth,4.80
2024-02-18T01:09:00,pth,6.00
2024-02-18T01:11:00,pth,4.80
2024-02-18T01:12:00,pth,2.40
2024-02-18T01:14:00,pth,4.80
2024-02-18T01:16:00,pth,4.80
2024-02-18T01:17:00,pth,2.40
2024-02-18T01:19:00,pth,4.80
2024-02-18T01:21:00,pth,4.80
2024-02-18T01:22:00,pth,2.40
2024-02-18T01:24:00,pth,4.80
2024-02-18T01:26:00,pth,4.80
2024-02-18T01:28:00,pth,4.80
2024-02-18T01:30:00,pth,6.01
2024-02-18T01:31:00,pth,2.40
2024-02-18T01:33:00,pth,4.80
2024-02-18T01:34:00,pth,2.40
2024-02-18T01:36:00,pth,4.80
2024-02-18T01:37:00,pth,2.40
2024-02-18T01:39:00,pth,4.80
2024-02-18T01:41:00,pth,4.80
2024-02-18T01:43:00,pth,4.80
2024-02-18T01:44:00,pth,2.40
2024-02-18T01:46:00,pth,4.80
2024-02-18T01:48:00,pth,6.01
2024-02-18T01:50:00,pth,4.80
2024-02-18T01:51:00,pth,2.40
2024-02-18T01:53:00,pth,4.80
2024-02-18T01:55:00,pth,4.80
2024-02-18T01:57:00,pth,4.80
2024-02-18T01:58:00,pth,2.40
2024-02-18T02:00:00,pth,4.80
2024-02-18T02:02:00,pth,3.60
2024-02-18T02:04:00,pth,4.80
2024-02-18T02:05:00,pth,4.80
2024-02-18T02:06:00,pth,4.80
2024-02-18T02:08:00,pth,4.80
2024-02-18T02:10:00,pth,3.60
2024-02-18T02:11:00,pth,2.40
2024-02-18T02:13:00,pth,4.80
2024-02-18T02:15:00,pth,3.60
2024-02-18T02:16:00,pth,2.40
2024-02-18T02:18:00,pth,4.80
2024-02-18T02:20:00,pth,3.60
2024-02-18T02:22:00,pth,4.80
2024-02-18T02:24:00,pth,4.80
2024-02-18T02:26:00,pth,4.80
2024-02-18T02:28:00,pth,4.80
2024-02-18T02:29:00,pth,2.40
2024-02-18T02:31:00,pth,4.80
2024-02-18T02:32:00,pth,2.40
2024-02-18T02:34:00,pth,3.60
2024-02-18T02:36:00,pth,4.80
2024-02-18T02:38:00,pth,4.80
2024-02-18T02:40:00,pth,4.80
2024-02-18T02:41:00,pth,1.20
2024-02-18T02:42:00,pth,2.40
2024-02-18T02:44:00,pth,4.80
2024-02-18T02:45:00,pth,2.40
2024-02-18T02:46:00,pth,2.40
2024-02-18T02:48:00,pth,4.80
2024-02-18T02:50:00,pth,3.60
2024-02-18T02:51:00,pth,2.40
2024-02-18T02:53:00,pth,4.80
2024-02-18T02:54:00,pth,2.40
2024-02-18T02:55:00,pth,2.40
2024-02-18T02:56:00,pth,2.40
2024-02-18T02:58:00,pth,4.80
2024-02-18T03:00:00,pth,3.60
2024-02-18T03:02:00,pth,4.80
2024-02-18T03:03:00,pth,2.40
2024-02-18T03:04:00,pth,2.40
2024-02-18T03:06:00,pth,4.80
2024-02-18T03:07:00,pth,2.40
2024-02-18T03:09:00,pth,4.80
2024-02-18T03:11:00,pth,4.80
2024-02-18T03:13:00,pth,4.80
2024-02-18T03:14:00,pth,2.40
2024-02-18T03:16:00,pth,4.80
2024-02-18T03:18:00,pth,4.80
2024-02-18T03:20:00,pth,4.80
2024-02-18T03:21:00,pth,2.40
2024-02-18T03:22:00,pth,2.40
2024-02-18T03:23:00,pth,2.40
2024-02-18T03:25:00,pth,4.80
2024-02-18T03:27:00,pth,4.80
2024-02-18T03:28:00,pth,2.40
2024-02-18T03:30:00,pth,3.60
2024-02-18T03:32:00,pth,4.80
2024-02-18T03:34:00,pth,4.80
2024-02-18T03:36:00,pth,4.80
2024-02-18T03:38:00,pth,4.80
2024-02-18T03:39:00,pth,2.40
2024-02-18T03:41:00,pth,4.80
2024-02-18T03:42:00,pth,2.40
2024-02-18T03:44:00,pth,4.80
2024-02-18T03:45:00,pth,1.20
2024-02-18T03:47:00,pth,4.80
2024-02-18T03:49:00,pth,4.80
2024-02-18T03:51:00,pth,4.80
2024-02-18T03:52:00,pth,2.40
2024-02-18T03:53:00,pth,2.40
2024-02-18T03:55:00,pth,4.80
2024-02-18T03:56:00,pth,2.40
2024-02-18T03:58:00,pth,4.80
2024-02-18T04:00:00,pth,4.80
2024-02-18T04:02:00,pth,4.80
2024-02-18T04:04:00,pth,4.80
2024-02-18T04:06:00,pth,4.80
2024-02-18T04:07:00,pth,2.40
2024-02-18T04:09:00,pth,3.60
2024-02-18T04:10:00,pth,2.40
2024-02-18T04:12:00,pth,4.80
2024-02-18T04:14:00,pth,3.60
2024-02-18T04:15:00,pth,2.40
2024-02-18T04:17:00,pth,4.80
2024-02-18T04:19:00,pth,3.60
2024-02-18T04:21:00,pth,4.80
2024-02-18T04:23:00,pth,4.80
2024-02-18T04:25:00,pth,3.60
2024-02-18T04:27:00,pth,4.80
2024-02-18T04:28:00,pth,2.40
2024-02-18T04:30:00,pth,3.60
2024-02-18T04:31:00,pth,2.40
2024-02-18T04:33:00,pth,4.80
2024-02-18T04:35:00,pth,3.60
2024-02-18T04:37:00,pth,4.80
2024-02-18T04:39:00,pth,4.80
2024-02-18T04:40:00,pth,2.40
2024-02-18T04:42:00,pth,3.60
2024-02-18T04:44:00,pth,4.80
2024-02-18T04:45:00,pth,2.40
2024-02-18T04:47:00,pth,3.60
2024-02-18T04:48:00,pth,2.40
2024-02-18T04:50:00,pth,4.80
2024-02-18T04:51:00,pth,2.40
2024-02-18T04:53:00,pth,4.80
2024-02-18T04:54:00,pth,1.20
2024-02-18T04:56:00,pth,4.80
2024-02-18T04:57:00,pth,2.40
2024-02-18T04:59:00,pth,4.80
2024-02-18T05:00:00,pth,1.19
2024-02-18T05:02:00,pth,4.80
2024-02-18T05:03:00,pth,2.40
2024-02-18T05:04:00,pth,2.40
2024-02-18T05:06:00,pth,3.60
2024-02-18T05:07:00,pth,2.40
2024-02-18T05:09:00,pth,4.80
2024-02-18T05:11:00,pth,3.60
2024-02-18T05:13:00,pth,4.80
2024-02-18T05:15:00,pth,3.60
2024-02-18T05:16:00,pth,2.40
2024-02-18T05:17:00,pth,2.40
2024-02-18T05:19:00,pth,4.80
2024-02-18T05:21:00,pth,3.60
2024-02-18T05:22:00,pth,2.40
2024-02-18T05:23:00,pth,2.40
2024-02-18T05:25:00,pth,4.80
2024-02-18T05:26:00,pth,2.40
2024-02-18T05:28:00,pth,3.60
2024-02-18T05:29:00,pth,2.40
2024-02-18T05:31:00,pth,4.80
2024-02-18T05:33:00,pth,3.60
2024-02-18T05:34:00,pth,2.40
2024-02-18T05:36:00,pth,4.80
2024-02-18T05:37:00,pth,2.40
2024-02-18T05:39:00,pth,3.60
2024-02-18T05:41:00,pth,4.80
2024-02-18T05:42:00,pth,1.20
2024-02-18T05:44:00,pth,4.80
2024-02-18T05:46:00,pth,4.80
2024-02-18T05:48:00,pth,4.80
2024-02-18T05:50:00,pth,3.60
2024-02-18T05:51:00,pth,2.40
2024-02-18T05:53:00,pth,4.80
2024-02-18T05:55:00,pth,3.60
2024-02-18T05:57:00,pth,4.80
2024-02-18T05:59:00,pth,4.80
2024-02-18T06:01:00,pth,4.80
2024-02-18T06:03:00,pth,4.80
2024-02-18T06:05:00,pth,4.80
2024-02-18T06:07:00,pth,3.60
2024-02-18T06:09:00,pth,4.80
2024-02-18T06:11:00,pth,6.00
2024-02-18T06:12:00,pth,1.20
2024-02-18T06:13:00,pth,2.40
2024-02-18T06:15:00,pth,4.80
2024-02-18T06:16:00,pth,2.40
2024-02-18T06:17:00,pth,2.40
2024-02-18T06:19:00,pth,4.80
2024-02-18T06:20:00,pth,2.40
2024-02-18T06:21:00,pth,1.19
2024-02-18T06:23:00,pth,4.80
2024-02-18T06:24:00,pth,2.40
2024-02-18T06:25:00,pth,2.40
2024-02-18T06:26:00,pth,1.20
2024-02-18T06:28:00,pth,4.80
2024-02-18T06:29:00,pth,2.40
2024-02-18T06:31:00,pth,4.80
2024-02-18T06:32:00,pth,2.40
2024-02-18T06:34:00,pth,3.60
2024-02-18T06:35:00,pth,2.40
2024-02-18T06:36:00,pth,2.40
2024-02-18T06:38:00,pth,4.80
2024-02-18T06:39:00,pth,2.40
2024-02-18T06:41:00,pth,3.60
2024-02-18T06:43:00,pth,4.80
2024-02-18T06:44:00,pth,2.40
2024-02-18T06:46:00,pth,3.60
2024-02-18T06:48:00,pth,4.80
2024-02-18T06:49:00,pth,2.40
2024-02-18T06:51:00,pth,4.80
2024-02-18T06:52:00,pth,2.40
2024-02-18T06:54:00,pth,4.80
2024-02-18T06:56:00,pth,3.60
2024-02-18T06:58:00,pth,4.80
2024-02-18T07:00:00,pth,4.80
2024-02-18T07:01:00,pth,2.40
2024-02-18T07:03:00,pth,3.60
2024-02-18T07:05:00,pth,3.60
2024-02-18T07:07:00,pth,3.60
2024-02-18T07:08:00,pth,2.40
2024-02-18T07:10:00,pth,3.60
2024-02-18T07:11:00,pth,2.40
2024-02-18T07:13:00,pth,3.60
2024-02-18T07:14:00,pth,2.40
2024-02-18T07:16:00,pth,4.80
2024-02-18T07:18:00,pth,3.60
2024-02-18T07:20:00,pth,4.80
2024-02-18T07:22:00,pth,3.60
2024-02-18T07:24:00,pth,4.80
2024-02-18T07:25:00,pth,1.20
2024-02-18T07:26:00,pth,2.40
2024-02-18T07:28:00,pth,3.60
2024-02-18T07:30:00,pth,4.80
2024-02-18T07:32:00,pth,3.60
2024-02-18T07:33:00,pth,2.40
2024-02-18T07:35:00,pth,4.80
2024-02-18T07:37:00,pth,3.60
2024-02-18T07:39:00,pth,4.80
2024-02-18T07:41:00,pth,3.60
2024-02-18T07:43:00,pth,4.80
2024-02-18T07:45:00,pth,3.60
2024-02-18T07:47:00,pth,3.60
2024-02-18T07:49:00,pth,3.60
2024-02-18T07:50:00,pth,2.40
2024-02-18T07:51:00,pth,2.40
2024-02-18T07:53:00,pth,3.60
2024-02-18T07:54:00,pth,2.40
2024-02-18T07:56:00,pth,3.60
2024-02-18T07:58:00,pth,3.60
2024-02-18T07:59:00,pth,2.40
2024-02-18T08:00:00,pth,2.40
2024-02-18T08:02:00,pth,3.60
2024-02-18T08:03:00,pth,2.40
2024-02-18T08:04:00,pth,2.40
2024-02-18T08:06:00,pth,3.60
2024-02-18T08:07:00,pth,2.40
2024-02-18T08:08:00,pth,1.20
2024-02-18T08:10:00,pth,4.80
2024-02-18T08:12:00,pth,4.80
2024-02-18T08:13:00,pth,1.20
2024-02-18T08:15:00,pth,6.00
2024-02-18T08:17:00,pth,6.00
2024-02-18T08:19:00,pth,4.80
2024-02-18T08:21:00,pth,4.80
2024-02-18T08:22:00,pth,2.40
2024-02-18T08:24:00,pth,4.80
2024-02-18T08:26:00,pth,4.80
2024-02-18T08:28:00,pth,3.60
2024-02-18T08:30:00,pth,4.80
2024-02-18T08:32:00,pth,3.60
2024-02-18T08:33:00,pth,2.40
2024-02-18T08:34:00,pth,2.40
2024-02-18T08:36:00,pth,3.60
2024-02-18T08:37:00,pth,2.40
2024-02-18T08:39:00,pth,3.60
2024-02-18T08:40:00,pth,2.40
2024-02-18T08:42:00,pth,3.60
2024-02-18T08:44:00,pth,3.60
2024-02-18T08:46:00,pth,3.60
2024-02-18T08:48:00,pth,4.80
2024-02-18T08:49:00,pth,1.20
2024-02-18T08:51:00,pth,3.60
2024-02-18T08:52:00,pth,2.40
2024-02-18T08:54:00,pth,3.60
2024-02-18T08:55:00,pth,2.40
2024-02-18T08:56:00,pth,2.40
2024-02-18T08:58:00,pth,3.60
2024-02-18T09:00:00,pth,4.80
2024-02-18T09:02:00,pth,3.60
2024-02-18T09:03:00,pth,2.40
2024-02-18T09:04:00,pth,2.40
2024-02-18T09:06:00,pth,3.60
2024-02-18T09:07:00,pth,1.19
2024-02-18T09:09:00,pth,3.60
2024-02-18T09:11:00,pth,3.60
2024-02-18T09:12:00,pth,2.40
2024-02-18T09:14:00,pth,3.60
2024-02-18T09:16:00,pth,4.80
2024-02-18T09:18:00,pth,3.60
2024-02-18T09:20:00,pth,3.60
2024-02-18T09:22:00,pth,4.80
2024-02-18T09:23:00,pth,2.40
2024-02-18T09:24:00,pth,2.40
2024-02-18T09:26:00,pth,4.80
2024-02-18T09:28:00,pth,4.80
2024-02-18T09:29:00,pth,2.40
2024-02-18T09:31:00,pth,4.80
2024-02-18T09:32:00,pth,2.40
2024-02-18T09:34:00,pth,6.00
2024-02-18T09:36:00,pth,6.01
2024-02-18T09:37:00,pth,1.20
2024-02-18T09:39:00,pth,4.80
2024-02-18T09:41:00,pth,4.80
2024-02-18T09:42:00,pth,2.40
2024-02-18T09:44:00,pth,4.80
2024-02-18T09:46:00,pth,4.80
2024-02-18T09:48:00,pth,3.60
2024-02-18T09:49:00,pth,2.40
2024-02-18T09:51:00,pth,4.80
2024-02-18T09:53:00,pth,3.60
2024-02-18T09:55:00,pth,3.60
2024-02-18T09:57:00,pth,4.80
2024-02-18T09:59:00,pth,3.60
2024-02-18T10:00:00,pth,2.40
2024-02-18T10:02:00,pth,3.60
2024-02-18T10:04:00,pth,4.80
2024-02-18T10:05:00,pth,2.40
2024-02-18T10:07:00,pth,3.60
2024-02-18T10:08:00,pth,2.40
2024-02-18T10:10:00,pth,4.80
2024-02-18T10:11:00,pth,2.40
2024-02-18T10:13:00,pth,3.60
2024-02-18T10:14:00,pth,2.40
2024-02-18T10:16:00,pth,3.60
2024-02-18T10:18:00,pth,3.60
2024-02-18T10:19:00,pth,2.40
2024-02-18T10:21:00,pth,3.60
2024-02-18T10:23:00,pth,4.80
2024-02-18T10:25:00,pth,4.80
2024-02-18T10:26:00,pth,2.40
2024-02-18T10:27:00,pth,1.20
2024-02-18T10:28:00,pth,2.40
2024-02-18T10:30:00,pth,4.80
2024-02-18T10:32:00,pth,3.60
2024-02-18T10:34:00,pth,3.60
2024-02-18T10:36:00,pth,3.60
2024-02-18T10:38:00,pth,3.60
2024-02-18T10:39:00,pth,1.20
2024-02-18T10:41:00,pth,4.80
2024-02-18T10:42:00,pth,1.19
2024-02-18T10:44:00,pth,3.60
2024-02-18T10:45:00,pth,2.40
2024-02-18T10:47:00,pth,3.60
2024-02-18T10:49:00,pth,3.60
2024-02-18T10:50:00,pth,1.20
2024-02-18T10:52:00,pth,4.80
2024-02-18T10:54:00,pth,3.60
2024-02-18T10:56:00,pth,4.80
2024-02-18T10:57:00,pth,1.20
2024-02-18T10:59:00,pth,4.80
2024-02-18T11:01:00,pth,3.60
2024-02-18T11:02:00,pth,2.40
2024-02-18T11:04:00,pth,3.60
2024-02-18T11:05:00,pth,2.40
2024-02-18T11:07:00,pth,4.80
2024-02-18T11:09:00,pth,4.80
2024-02-18T11:10:00,pth,1.20
2024-02-18T11:11:00,pth,2.40
2024-02-18T11:13:00,pth,4.80
2024-02-18T11:15:00,pth,4.80
2024-02-18T11:17:00,pth,3.60
2024-02-18T11:19:00,pth,4.80
2024-02-18T11:21:00,pth,3.60
2024-02-18T11:23:00,pth,4.80
2024-02-18T11:24:00,pth,1.20
2024-02-18T11:26:00,pth,4.80
2024-02-18T11:28:00,pth,3.60
2024-02-18T11:30:00,pth,3.60
2024-02-18T11:32:00,pth,4.80
2024-02-18T11:34:00,pth,3.60
2024-02-18T11:36:00,pth,3.60
2024-02-18T11:38:00,pth,4.80
2024-02-18T11:40:00,pth,3.60
2024-02-18T11:41:00,pth,2.40
2024-02-18T11:43:00,pth,3.60
2024-02-18T11:44:00,pth,2.40
2024-02-18T11:46:00,pth,3.60
2024-02-18T11:47:00,pth,2.40
2024-02-18T11:49:00,pth,4.80
2024-02-18T11:50:00,pth,1.20
2024-02-18T11:52:00,pth,4.80
2024-02-18T11:54:00,pth,3.60
2024-02-18T11:56:00,pth,4.80
2024-02-18T11:58:00,pth,6.00
2024-02-18T12:00:00,pth,6.01
2024-02-18T12:02:00,pth,4.80
2024-02-18T12:03:00,pth,1.20
2024-02-18T12:05:00,pth,3.60
2024-02-18T12:06:00,pth,2.40
2024-02-18T12:08:00,pth,4.80
2024-02-18T12:10:00,pth,3.60
2024-02-18T12:11:00,pth,2.40
2024-02-18T12:13:00,pth,3.60
2024-02-18T12:14:00,pth,2.40
2024-02-18T12:16:00,pth,3.60
2024-02-18T12:18:00,pth,3.60
2024-02-18T12:19:00,pth,2.40
2024-02-18T12:21:00,pth,3.60
2024-02-18T12:23:00,pth,4.80
2024-02-18T12:24:00,pth,1.20
2024-02-18T12:26:00,pth,4.80
2024-02-18T12:28:00,pth,3.60
2024-02-18T12:30:00,pth,4.80
2024-02-18T12:32:00,pth,3.60
2024-02-18T12:34:00,pth,4.80
2024-02-18T12:36:00,pth,3.60
2024-02-18T12:37:00,pth,2.40
2024-02-18T12:39:00,pth,3.60
2024-02-18T12:41:00,pth,4.80
2024-02-18T12:43:00,pth,3.60
2024-02-18T12:44:00,pth,2.40
2024-02-18T12:46:00,pth,3.60
2024-02-18T12:48:00,pth,4.80
2024-02-18T12:49:00,pth,1.20
2024-02-18T12:51:00,pth,3.60
2024-02-18T12:52:00,pth,2.40
2024-02-18T12:54:00,pth,3.60
2024-02-18T12:56:00,pth,3.60
2024-02-18T12:58:00,pth,4.80
2024-02-18T13:00:00,pth,3.60
2024-02-18T13:01:00,pth,2.40
2024-02-18T13:03:00,pth,3.60
2024-02-18T13:05:00,pth,3.60
2024-02-18T13:06:00,pth,2.40
2024-02-18T13:08:00,pth,3.60
2024-02-18T13:09:00,pth,2.40
2024-02-18T13:11:00,pth,3.60
2024-02-18T13:13:00,pth,3.60
2024-02-18T13:14:00,pth,2.40
2024-02-18T13:16:00,pth,3.60
2024-02-18T13:18:00,pth,4.80
2024-02-18T13:19:00,pth,2.40
2024-02-18T13:20:00,pth,1.20
2024-02-18T13:22:00,pth,4.80
2024-02-18T13:23:00,pth,2.40
2024-02-18T13:24:00,pth,2.40
2024-02-18T13:25:00,pth,1.20
2024-02-18T13:27:00,pth,3.60
2024-02-18T13:29:00,pth,6.00
2024-02-18T13:30:00,pth,2.40
2024-02-18T13:32:00,pth,4.80
2024-02-18T13:33:00,pth,2.40
2024-02-18T13:34:00,pth,2.40
2024-02-18T13:36:00,pth,3.60
2024-02-18T13:38:00,pth,3.60
2024-02-18T13:40:00,pth,3.60
2024-02-18T13:41:00,pth,2.40
2024-02-18T13:42:00,pth,1.20
2024-02-18T13:44:00,pth,4.80
2024-02-18T13:46:00,pth,3.60
2024-02-18T13:48:00,pth,3.60
2024-02-18T13:50:00,pth,4.80
2024-02-18T13:52:00,pth,3.60
2024-02-18T13:54:00,pth,4.80
2024-02-18T13:55:00,pth,2.40
2024-02-18T13:57:00,pth,4.80
2024-02-18T13:59:00,pth,4.80
2024-02-18T14:00:00,pth,3.60
2024-02-18T14:01:00,pth,2.40
2024-02-18T14:03:00,pth,4.80
2024-02-18T14:04:00,pth,2.40
2024-02-18T14:06:00,pth,4.80
2024-02-18T14:08:00,pth,4.80
2024-02-18T14:09:00,pth,2.40
2024-02-18T14:10:00,pth,2.40
2024-02-18T14:12:00,pth,3.60
2024-02-18T14:13:00,pth,2.40
2024-02-18T14:15:00,pth,3.60
2024-02-18T14:17:00,pth,3.60
2024-02-18T14:18:00,pth,2.40
2024-02-18T14:20:00,pth,4.80
2024-02-18T14:21:00,pth,2.40
2024-02-18T14:23:00,pth,7.20
2024-02-18T14:25:00,pth,16.80
2024-02-18T14:27:00,pth,15.60
2024-02-18T14:28:00,pth,8.40
2024-02-18T14:30:00,pth,14.40
2024-02-18T14:32:00,pth,16.80
2024-02-18T14:34:00,pth,16.79
2024-02-18T14:36:00,pth,15.60
2024-02-18T14:38:00,pth,15.60
2024-02-18T14:40:00,pth,14.40
2024-02-18T14:41:00,pth,7.20
2024-02-18T14:43:00,pth,14.40
2024-02-18T14:45:00,pth,14.40
2024-02-18T14:46:00,pth,7.21
2024-02-18T14:48:00,pth,14.40
2024-02-18T14:49:00,pth,7.20
2024-02-18T14:51:00,pth,16.79
2024-02-18T14:53:00,pth,15.60
2024-02-18T14:55:00,pth,15.60
2024-02-18T14:56:00,pth,7.20
2024-02-18T14:58:00,pth,14.40
2024-02-18T15:00:00,pth,15.60
2024-02-18T15:01:00,pth,7.20
2024-02-18T15:03:00,pth,10.80
2024-02-18T15:05:00,pth,6.00
2024-02-18T15:06:00,pth,8.40
2024-02-18T15:08:00,pth,14.40
2024-02-18T15:10:00,pth,10.80
2024-02-18T15:11:00,pth,2.40
2024-02-18T15:13:00,pth,10.80
2024-02-18T15:14:00,pth,7.20
2024-02-18T15:16:00,pth,14.40
2024-02-18T15:18:00,pth,3.60
2024-02-18T15:19:00,pth,7.21
2024-02-18T15:21:00,pth,14.40
2024-02-18T15:23:00,pth,6.00
2024-02-18T15:25:00,pth,4.80
2024-02-18T15:27:00,pth,3.60
2024-02-18T15:29:00,pth,3.60
2024-02-18T15:30:00,pth,2.40
2024-02-18T15:32:00,pth,3.60
2024-02-18T15:34:00,pth,4.80
2024-02-18T15:36:00,pth,4.80
2024-02-18T15:38:00,pth,3.60
2024-02-18T15:39:00,pth,2.40
2024-02-18T15:41:00,pth,4.80
2024-02-18T15:43:00,pth,4.80
2024-02-18T15:45:00,pth,3.60
2024-02-18T15:46:00,pth,2.40
2024-02-18T15:48:00,pth,3.60
2024-02-18T15:49:00,pth,2.40
2024-02-18T15:51:00,pth,3.60
2024-02-18T15:52:00,pth,2.40
2024-02-18T15:53:00,pth,2.40
2024-02-18T15:55:00,pth,3.60
2024-02-18T15:56:00,pth,1.20
2024-02-18T15:57:00,pth,2.40
2024-02-18T15:59:00,pth,3.60
2024-02-18T16:01:00,pth,3.60
2024-02-18T16:03:00,pth,3.60
2024-02-18T16:05:00,pth,4.80
2024-02-18T16:06:00,pth,1.20
2024-02-18T16:07:00,pth,2.40
2024-02-18T16:09:00,pth,4.80
2024-02-18T16:10:00,pth,1.20
2024-02-18T16:12:00,pth,4.80
2024-02-18T16:14:00,pth,3.60
2024-02-18T16:16:00,pth,4.80
2024-02-18T16:17:00,pth,1.20
2024-02-18T16:18:00,pth,2.40
2024-02-18T16:20:00,pth,4.80
2024-02-18T16:22:00,pth,3.60
2024-02-18T16:24:00,pth,4.80
2024-02-18T16:26:00,pth,4.80
2024-02-18T16:28:00,pth,6.01
2024-02-18T16:29:00,pth,2.40
2024-02-18T16:30:00,pth,2.40
2024-02-18T16:31:00,pth,2.40
2024-02-18T16:33:00,pth,6.00
2024-02-18T16:34:00,pth,2.40
2024-02-18T16:36:00,pth,3.60
2024-02-18T16:38:00,pth,4.80
2024-02-18T16:40:00,pth,3.60
2024-02-18T16:42:00,pth,4.80
2024-02-18T16:44:00,pth,3.60
2024-02-18T16:46:00,pth,4.80
2024-02-18T16:48:00,pth,4.80
2024-02-18T16:49:00,pth,2.40
2024-02-18T16:51:00,pth,6.00
2024-02-18T16:53:00,pth,4.80
2024-02-18T16:55:00,pth,4.80
2024-02-18T16:57:00,pth,4.80
2024-02-18T16:59:00,pth,4.80
2024-02-18T17:00:00,pth,2.40
2024-02-18T17:01:00,pth,2.40
2024-02-18T17:03:00,pth,3.60
2024-02-18T17:05:00,pth,3.60
2024-02-18T17:07:00,pth,4.80
2024-02-18T17:08:00,pth,1.19
2024-02-18T17:10:00,pth,4.80
2024-02-18T17:12:00,pth,3.60
2024-02-18T17:13:00,pth,2.40
2024-02-18T17:14:00,pth,2.40
2024-02-18T17:16:00,pth,3.60
2024-02-18T17:18:00,pth,4.80
2024-02-18T17:20:00,pth,3.60
2024-02-18T17:21:00,pth,2.40
2024-02-18T17:23:00,pth,4.80
2024-02-18T17:25:00,pth,3.60
2024-02-18T17:27:00,pth,3.60
2024-02-18T17:28:00,pth,2.40
2024-02-18T17:29:00,pth,1.20
2024-02-18T17:31:00,pth,4.80
2024-02-18T17:33:00,pth,3.60
2024-02-18T17:35:00,pth,4.80
2024-02-18T17:37:00,pth,4.80
2024-02-18T17:39:00,pth,3.60
2024-02-18T17:40:00,pth,2.40
2024-02-18T17:41:00,pth,2.40
2024-02-18T17:43:00,pth,4.80
2024-02-18T17:45:00,pth,4.80
2024-02-18T17:47:00,pth,4.80
2024-02-18T17:48:00,pth,2.40
2024-02-18T17:50:00,pth,4.80
2024-02-18T17:52:00,pth,4.80
2024-02-18T17:54:00,pth,4.80
2024-02-18T17:56:00,pth,4.80
2024-02-18T17:57:00,pth,2.40
2024-02-18T17:59:00,pth,4.80
2024-02-18T18:01:00,pth,4.80
2024-02-18T18:02:00,pth,2.40
2024-02-18T18:04:00,pth,4.80
2024-02-18T18:06:00,pth,4.80
2024-02-18T18:07:00,pth,2.40
2024-02-18T18:09:00,pth,4.80
2024-02-18T18:10:00,pth,2.40
2024-02-18T18:12:00,pth,4.80
2024-02-18T18:13:00,pth,2.40
2024-02-18T18:15:00,pth,4.80
2024-02-18T18:16:00,pth,2.40
2024-02-18T18:17:00,pth,2.40
2024-02-18T18:19:00,pth,3.60
2024-02-18T18:21:00,pth,4.80
2024-02-18T18:23:00,pth,3.60
2024-02-18T18:25:00,pth,4.80
2024-02-18T18:26:00,pth,2.40
2024-02-18T18:28:00,pth,4.80
2024-02-18T18:30:00,pth,4.80
2024-02-18T18:31:00,pth,2.40
2024-02-18T18:33:00,pth,6.01
2024-02-18T18:35:00,pth,4.80
2024-02-18T18:37:00,pth,4.80
2024-02-18T18:38:00,pth,2.40
2024-02-18T18:40:00,pth,4.80
2024-02-18T18:42:00,pth,8.40
2024-02-18T18:44:00,pth,8.40
2024-02-18T18:46:00,pth,8.40
2024-02-18T18:47:00,pth,3.60
2024-02-18T18:49:00,pth,8.39
2024-02-18T18:51:00,pth,8.40
2024-02-18T18:53:00,pth,8.40
2024-02-18T18:54:00,pth,4.80
2024-02-18T18:56:00,pth,7.20
2024-02-18T18:58:00,pth,7.20
2024-02-18T19:00:00,pth,7.20
2024-02-18T19:02:00,pth,6.00
2024-02-18T19:03:00,pth,2.40
2024-02-18T19:05:00,pth,4.80
2024-02-18T19:07:00,pth,6.00
2024-02-18T19:09:00,pth,4.80
2024-02-18T19:11:00,pth,4.80
2024-02-18T19:13:00,pth,4.80
2024-02-18T19:15:00,pth,6.00
2024-02-18T19:17:00,pth,4.80
2024-02-18T19:19:00,pth,4.80
2024-02-18T19:20:00,pth,2.40
2024-02-18T19:21:00,pth,2.40
2024-02-18T19:23:00,pth,6.01
2024-02-18T19:24:00,pth,2.40
2024-02-18T19:26:00,pth,4.80
2024-02-18T19:27:00,pth,2.40
2024-02-18T19:28:00,pth,2.40
2024-02-18T19:30:00,pth,4.80
2024-02-18T19:31:00,pth,2.40
2024-02-18T19:33:00,pth,4.80
2024-02-18T19:34:00,pth,2.40
2024-02-18T19:36:00,pth,4.80
2024-02-18T19:38:00,pth,4.80
2024-02-18T19:40:00,pth,4.80
2024-02-18T19:41:00,pth,4.80
2024-02-18T19:42:00,pth,3.60
2024-02-18T19:44:00,pth,4.80
2024-02-18T19:45:00,pth,3.60
2024-02-18T19:47:00,pth,4.80
2024-02-18T19:48:00,pth,2.40
2024-02-18T19:50:00,pth,6.00
2024-02-18T19:52:00,pth,4.80
2024-02-18T19:53:00,pth,3.60
2024-02-18T19:54:00,pth,2.40
2024-02-18T19:55:00,pth,2.40
2024-02-18T19:56:00,pth,2.40
2024-02-18T19:58:00,pth,6.00
2024-02-18T19:59:00,pth,2.40
2024-02-18T20:01:00,pth,4.80
2024-02-18T20:03:00,pth,6.01
2024-02-18T20:05:00,pth,4.80
2024-02-18T20:07:00,pth,4.80
2024-02-18T20:08:00,pth,3.60
2024-02-18T20:09:00,pth,2.40
2024-02-18T20:11:00,pth,6.00
2024-02-18T20:12:00,pth,2.40
2024-02-18T20:13:00,pth,3.60
2024-02-18T20:15:00,pth,4.80
2024-02-18T20:17:00,pth,6.00
2024-02-18T20:19:00,pth,7.21
2024-02-18T20:21:00,pth,6.00
2024-02-18T20:23:00,pth,7.20
2024-02-18T20:24:00,pth,3.60
2024-02-18T20:25:00,pth,2.40
2024-02-18T20:26:00,pth,3.60
2024-02-18T20:28:00,pth,6.01
2024-02-18T20:30:00,pth,6.00
2024-02-18T20:31:00,pth,2.40
2024-02-18T20:33:00,pth,4.80
2024-02-18T20:34:00,pth,2.40
2024-02-18T20:35:00,pth,3.60
2024-02-18T20:36:00,pth,2.40
2024-02-18T20:37:00,pth,3.60
2024-02-18T20:39:00,pth,6.01
2024-02-18T20:41:00,pth,4.80
2024-02-18T20:43:00,pth,6.00
2024-02-18T20:45:00,pth,4.80
2024-02-18T20:46:00,pth,6.01
2024-02-18T20:48:00,pth,15.60
2024-02-18T20:49:00,pth,8.39
2024-02-18T20:51:00,pth,16.80
2024-02-18T20:52:00,pth,8.40
2024-02-18T20:54:00,pth,16.80
2024-02-18T20:55:00,pth,7.20
2024-02-18T20:56:00,pth,8.40
2024-02-18T20:58:00,pth,15.60
2024-02-18T20:59:00,pth,8.40
2024-02-18T21:00:00,pth,8.39
2024-02-18T21:02:00,pth,15.60
2024-02-18T21:04:00,pth,15.60
2024-02-18T21:06:00,pth,15.60
2024-02-18T21:08:00,pth,15.60
2024-02-18T21:10:00,pth,16.80
2024-02-18T21:12:00,pth,15.60
2024-02-18T21:14:00,pth,15.60
2024-02-18T21:16:00,pth,15.60
2024-02-18T21:17:00,pth,8.40
2024-02-18T21:19:00,pth,15.59
2024-02-18T21:20:00,pth,8.40
2024-02-18T21:21:00,pth,8.40
2024-02-18T21:22:00,pth,7.20
2024-02-18T21:23:00,pth,8.40
2024-02-18T21:25:00,pth,15.60
2024-02-18T21:26:00,pth,8.40
2024-02-18T21:27:00,pth,8.40
2024-02-18T21:29:00,pth,15.60
2024-02-18T21:31:00,pth,18.00
2024-02-18T21:32:00,pth,9.60
2024-02-18T21:34:00,pth,16.80
2024-02-18T21:36:00,pth,18.00
2024-02-18T21:37:00,pth,9.60
2024-02-18T21:38:00,pth,8.40
2024-02-18T21:40:00,pth,16.80
2024-02-18T21:42:00,pth,15.60
2024-02-18T21:44:00,pth,16.79
2024-02-18T21:46:00,pth,7.20
2024-02-18T21:48:00,pth,6.01
2024-02-18T21:50:00,pth,4.80
2024-02-18T21:51:00,pth,3.60
2024-02-18T21:53:00,pth,4.80
2024-02-18T21:55:00,pth,6.00
2024-02-18T21:57:00,pth,6.00
2024-02-18T21:59:00,pth,6.01
2024-02-18T22:01:00,pth,6.00
2024-02-18T22:02:00,pth,2.40
2024-02-18T22:03:00,pth,3.60
2024-02-18T22:04:00,pth,2.40
2024-02-18T22:06:00,pth,7.20
2024-02-18T22:08:00,pth,6.00
2024-02-18T22:10:00,pth,6.00
2024-02-18T22:11:00,pth,2.40
2024-02-18T22:12:00,pth,3.60
2024-02-18T22:14:00,pth,4.80
2024-02-18T22:15:00,pth,2.40
2024-02-18T22:17:00,pth,6.00
2024-02-18T22:19:00,pth,4.80
2024-02-18T22:21:00,pth,6.00
2024-02-18T22:22:00,pth,2.40
2024-02-18T22:24:00,pth,4.80
2024-02-18T22:25:00,pth,2.40
2024-02-18T22:27:00,pth,6.00
2024-02-18T22:29:00,pth,4.80
2024-02-18T22:31:00,pth,4.80
2024-02-18T22:32:00,pth,3.60